Location: Bergfeld
(52.0500°N, 11.7833°E)
Time: 09:31:49
(UTC+00:00)

ATLAS 2AS CENTAUR R/B - Pass Details

Date: 17 February 2020
Orbit: 929 x 1283 km, 63.7° (Epoch: 27 March)

Event Time Altitude Azimuth Distance (km) Brightness Sun altitude
Exits shadow 04:10:26 15° 314° (NW) 2,855 4.6 -21.3°
Maximum altitude 04:16:27 40° 17° (NNE) 1,729 3.9 -20.4°
Drops below altitude 10° 04:23:23 10° 86° (E) 3,071 6.4 -19.3°
Sets 04:26:13 0° 94° (E) 3,977 7.3 -18.9°
